Location: Great Malvern
(52.1167°N, 2.3167°W)
Time: 18:58:17
(UTC+00:00)

ATLAS 2AS CENTAUR R/B - Pass Details

Date: 18 September 2020
Orbit: 939 x 1273 km, 63.7° (Epoch: 19 October)

Event Time Altitude Azimuth Distance (km) Brightness Sun altitude
Rises 21:01:56 0° 198° (SSW) 4,195 5.6 -24.3°
Enters shadow 21:04:48 10° 193° (SSW) 3,249 5.0 -24.7°
Exits shadow 21:11:56 49° 130° (SE) 1,594 3.1 -25.5°
Maximum altitude 21:12:20 50° 121° (ESE) 1,587 3.1 -25.6°
Drops below altitude 10° 21:19:49 10° 50° (NE) 3,228 5.1 -26.4°
Sets 21:22:39 0° 45° (NE) 4,168 5.8 -26.7°
